User: anonymous   Login
Location: Unspecified
(0.0000°N, 0.0000°E)
Time: 22:40:35
(UTC+00:00)
Language:

ETS 8 - Orbit

View from above orbital plane
View from above orbital plane
View from above satellite
View from above satellite

Ground track
Ground track

The orbit data is extracted from the following two-line orbital elements,

1 29656U 06059A   15 57.34272610  .00000000  00000-0  10000-3 0  9995
2 29656 004.0157 064.7210 0005449 274.6802 085.4943 01.00264460 30041
Epoch (UTC): 26 February 2015 08:13:31
Eccentricity: 0.0005449
inclination: 4.0157°
perigee height: 35765 km
apogee height: 35811 km
right ascension of ascending node: 64.7210°
argument of perigee: 274.6802°
revolutions per day: 1.00264460
mean anomaly at epoch: 85.4943°
orbit number at epoch: 3004

The dashed part of the orbit path shows where the satellite is in the earth's shadow,  

DLR